RH
8 12 19 42 72 71 58 65 48 51 67 69 75 76 72 74 74 66 62 58 57 71 75 64 60 57 71 75 49 14 24 60 70 69 73 77 75 63 61 67 52 14 10 9 8 7 7 6 5
8 11 32 56 65 63 45 63 21 45 57 64 63 73 78 78 72 81 71 70 57 59 74 72 65 62 72 72 55 23 20 49 63 67 68 75 74 69 64 66 61 19 10 9 8 8 8 7 6
9 12 45 82 63 47 43 50 22 25 39 47 48 63 79 81 74 71 79 74 68 69 80 78 70 66 70 80 64 40 22 37 53 56 64 70 74 74 71 62 59 49 17 10 9 9 11 10 7
11 19 44 71 52 56 53 44 16 24 30 39 55 65 62 78 73 71 74 78 71 82 90 87 76 70 71 83 84 67 45 34 41 58 66 69 68 68 69 68 59 50 38 16 11 10 15 16 9
13 19 81 66 54 61 60 49 22 35 33 29 34 62 54 59 73 72 76 72 79 75 91 95 84 77 79 84 91 83 74 57 48 48 48 52 58 64 64 57 49 47 36 18 13 13 20 20 10
15 40 67 56 52 70 81 40 24 41 36 28 33 43 48 54 58 71 76 73 73 77 77 89 91 81 83 86 91 88 81 78 64 59 49 50 56 58 56 62 57 50 36 22 16 20 24 21 9
15 54 51 44 46 62 76 36 25 32 43 36 40 43 55 64 62 65 64 65 69 71 84 81 95 91 85 82 83 83 83 80 80 77 77 61 62 60 64 58 61 53 47 40 27 29 31 20 8
17 70 63 59 62 61 51 30 21 24 49 32 68 78 68 56 70 68 64 68 80 82 82 98 90 93 99 99 99 96 89 89 85 86 94 89 70 57 52 54 47 48 53 56 32 31 33 22 12
17 62 55 55 60 62 49 35 23 20 33 50 67 76 70 72 74 72 67 73 82 82 87 87 87 92 96 99 98 99 99 96 95 91 81 77 84 71 50 53 38 34 55 70 47 37 27 23 21
19 46 40 55 62 70 50 38 32 24 23 27 57 67 65 70 71 76 78 86 88 83 90 92 82 79 96 95 93 98 99 99 78 58 68 71 77 79 60 39 30 34 60 83 63 52 30 34 37
21 19 42 37 43 38 45 44 40 28 24 25 32 36 62 57 70 62 77 78 82 80 78 73 72 85 96 100 97 91 98 99 83 74 97 95 79 69 64 39 20 21 50 85 79 71 47 53 54
25 22 29 39 32 29 32 31 26 22 23 26 32 36 44 54 66 68 46 70 80 82 82 81 78 82 87 92 92 87 84 96 100 98 99 99 96 92 71 47 32 42 36 84 88 88 67 67 73
28 38 30 36 38 38 43 40 40 29 25 20 22 25 29 30 37 65 50 37 66 82 81 79 83 86 90 93 96 94 95 97 95 98 100 100 100 100 98 73 70 80 88 63 80 91 90 80 74
40 35 36 38 37 40 42 42 45 35 34 28 25 25 24 28 27 31 36 34 41 71 82 82 84 89 87 92 99 92 100 91 100 98 98 98 100 100 100 86 48 59 50 88 100 97 97 100 92
40 43 41 37 36 40 47 43 41 43 39 38 32 26 23 22 23 25 26 28 30 78 87 88 98 98 99 99 93 98 100 100 98 100 99 96 99 100 98 99 96 60 54 96 99 96 68 90 95
42 42 49 46 42 37 39 43 48 40 37 36 34 30 28 22 22 21 23 24 30 59 100 100 99 99 99 97 98 95 92 95 99 100 100 99 100 98 98 98 99 100 99 83 67 76 98 100 96
52 40 44 43 44 49 48 44 47 48 42 39 39 37 40 34 24 23 22 20 34 58 98 100 100 99 100 98 97 99 95 100 84 92 89 86 99 99 99 98 97 99 98 100 92 90 72 68 96
44 45 42 43 44 42 53 51 49 47 46 43 41 40 45 43 36 29 25 26 25 65 88 100 100 100 100 98 90 63 90 92 94 83 89 86 66 75 61 73 87 97 97 98 99 96 90 88 77
56 53 49 44 47 46 52 54 52 49 49 50 47 44 42 45 42 45 35 42 49 72 90 100 100 100 100 100 91 58 59 78 90 61 67 100 88 54 43 52 79 87 99 100 98 98 100 100 100
58 56 51 48 45 45 52 47 51 51 51 53 52 50 45 42 42 48 69 92 96 100 100 100 100 100 98 75 46 33 26 26 29 28 31 52 46 51 56 38 48 76 94 100 98 99 98 100 100
55 61 56 52 52 46 47 57 49 53 53 54 54 53 53 48 42 44 57 68 80 86 89 79 69 63 50 25 20 18 16 15 14 13 14 18 22 29 35 42 81 68 74 83 92 98 99 100 99
63 56 52 57 66 58 51 53 59 52 57 57 56 55 55 57 57 53 52 55 52 48 46 41 36 47 34 25 23 22 22 21 20 18 14 15 17 22 31 38 67 82 77 92 71 63 96 99 100
68 67 63 53 66 70 77 74 65 67 61 63 62 60 58 56 56 54 52 48 44 41 37 34 32 31 31 29 29 29 28 26 24 22 18 17 20 25 37 43 55 96 99 96 99 100 94 83 99
68 74 79 83 87 92 69 73 53 64 60 61 65 68 67 63 59 59 56 54 52 49 45 42 39 37 35 33 32 31 30 28 27 23 20 23 28 32 38 46 69 82 96 97 94 97 98 99 96
71 97 87 94 94 76 61 83 65 74 68 67 71 69 72 73 71 68 66 61 56 53 51 47 42 39 37 35 33 32 31 31 30 28 26 28 36 50 55 58 96 76 84 96 92 97 100 99 99
96 97 75 70 70 58 81 85 92 79 80 76 83 89 83 81 81 78 73 68 62 57 54 48 41 36 33 32 32 33 33 34 34 34 35 36 40 46 59 78 90 82 100 97 100 100 100 100 99
98 100 96 97 92 77 92 94 92 84 94 84 91 99 97 92 90 85 76 70 63 55 45 42 44 45 46 42 34 30 31 35 38 38 40 42 44 45 48 54 64 77 83 94 99 100 99 100 99
96 95 97 95 87 86 91 97 91 96 100 100 100 100 98 96 95 93 81 63 60 58 56 58 60 61 60 59 57 51 39 31 35 41 42 44 48 50 53 56 60 66 70 78 83 89 95 96 99
96 97 96 94 96 80 70 88 92 100 100 97 98 97 97 96 96 96 94 85 79 76 74 72 71 70 68 66 66 65 60 48 36 40 46 49 54 56 59 63 66 67 71 75 81 85 92 98 99
97 97 97 96 92 98 97 96 91 98 97 97 96 96 96 96 96 96 96 96 96 96 96 96 91 72 70 68 67 68 70 68 59 50 49 59 61 63 64 63 64 64 65 65 65 66 71 76 82
Wind_Speed
17 17 16 15 10 11 19 14 19 16 18 19 24 18 16 21 25 11 6 16 17 12 18 20 20 19 16 15 15 16 20 17 16 14 12 10 7 6 6 5 3 3 4 4 5 6 8 10 11
20 19 19 19 14 20 19 18 24 15 14 17 19 22 22 19 28 26 16 13 18 16 16 21 21 20 19 17 17 17 18 18 16 15 13 12 9 7 6 4 1 1 2 3 3 4 6 8 9
22 21 21 12 19 31 15 14 16 21 23 16 13 18 21 21 26 26 24 13 17 18 19 22 22 22 20 19 19 18 19 20 17 16 15 14 12 9 6 5 3 2 1 1 2 3 3 5 7
24 23 26 22 28 18 19 7 18 22 22 25 20 12 21 28 25 26 26 21 16 14 17 24 25 24 22 21 20 20 20 20 19 17 14 14 14 12 10 7 6 5 4 3 1 1 2 2 4
26 28 23 27 33 24 22 16 20 17 18 22 25 20 19 22 27 24 27 32 19 21 13 22 27 28 26 23 23 22 21 20 19 19 18 16 14 13 13 12 9 7 6 6 4 3 2 2 2
28 29 21 38 27 21 24 26 23 21 16 15 18 25 27 20 22 26 29 35 29 29 24 22 27 30 30 28 26 24 22 22 21 19 19 18 17 15 13 10 9 8 6 6 6 6 5 4 4
31 28 33 30 22 26 27 26 29 26 20 21 20 21 26 23 17 26 26 27 35 37 30 24 33 31 30 29 28 26 26 23 22 22 21 21 20 18 15 14 12 10 8 8 8 7 6 5 6
33 27 27 31 30 27 27 23 26 30 23 23 20 11 17 23 21 23 23 20 26 34 40 25 29 33 30 28 28 26 25 24 24 22 22 22 22 20 19 19 17 14 12 11 9 9 9 8 8
33 29 36 33 19 19 25 19 24 26 28 25 26 22 14 20 20 22 25 23 23 33 39 27 29 45 28 33 34 23 29 27 24 24 24 25 27 26 24 20 19 19 17 15 12 11 10 9 10
36 37 38 24 27 20 21 23 25 22 24 29 31 26 26 20 19 25 23 22 27 27 27 25 22 25 28 26 28 24 29 26 27 26 25 23 24 30 29 26 23 22 19 18 15 13 12 11 11
39 47 32 33 37 36 29 28 26 20 24 29 31 36 29 29 27 23 30 29 27 28 26 26 28 24 24 26 25 27 25 25 27 25 25 23 23 25 30 28 28 26 24 23 19 17 15 14 14
40 42 40 36 37 30 22 24 29 33 35 31 25 29 30 30 33 30 26 30 32 32 30 29 29 29 28 27 27 25 30 27 25 28 27 26 24 21 24 29 28 27 25 25 22 19 19 17 16
38 37 38 41 40 33 30 30 26 31 31 33 36 33 30 29 33 35 32 30 32 34 34 33 31 29 29 29 27 26 27 27 31 27 29 28 27 26 25 27 22 25 25 28 27 25 22 21 20
30 36 38 39 36 36 35 34 29 36 32 31 31 30 33 34 30 31 34 33 34 37 37 38 34 30 28 28 26 23 29 25 33 35 29 20 16 21 26 28 29 34 32 32 24 24 27 25 24
30 31 31 31 31 37 35 35 37 42 37 34 32 31 29 31 35 34 34 36 37 39 40 36 34 31 29 26 26 23 30 30 34 34 39 42 31 16 18 25 21 29 32 32 28 24 32 30 29
19 24 23 21 31 32 26 38 31 39 38 41 40 37 34 35 33 36 37 37 40 41 42 40 36 35 33 34 33 23 27 27 25 24 25 35 34 16 20 20 19 23 30 33 35 40 34 26 29
17 20 17 19 21 22 28 22 34 35 37 37 39 36 31 30 35 36 37 39 40 43 45 43 40 40 37 32 28 30 25 23 30 21 26 29 26 20 15 24 29 20 24 34 34 37 40 42 38
20 19 19 19 12 20 22 27 27 25 34 36 36 37 33 28 32 36 37 40 41 43 47 44 42 40 39 37 36 35 36 36 34 33 29 30 27 28 26 25 20 31 23 36 33 38 39 39 39
20 18 18 15 18 20 19 22 31 32 28 31 34 36 37 32 28 33 37 38 41 42 44 44 42 41 42 39 38 35 35 34 35 34 30 26 29 23 24 25 11 21 27 34 34 29 42 34 38
20 20 22 17 15 20 20 26 31 33 34 30 31 34 37 37 33 30 33 34 35 37 38 40 41 41 38 36 35 34 33 32 33 30 29 31 31 31 27 25 20 14 19 39 37 36 26 26 40
22 23 21 21 16 23 19 22 29 33 35 35 32 32 34 36 37 34 31 32 31 32 34 33 33 32 35 31 31 28 26 27 27 26 26 30 32 31 30 27 28 25 19 16 26 37 46 37 33
18 19 22 19 15 20 20 11 22 30 33 35 36 35 35 35 35 35 32 30 30 30 31 30 29 31 35 30 30 28 27 27 27 27 27 28 29 29 29 32 35 33 25 17 23 24 29 25 37
17 17 15 17 22 19 16 13 19 22 33 35 36 37 36 35 34 33 32 31 30 29 29 30 30 30 28 29 30 29 28 28 27 28 28 28 28 29 28 29 30 30 32 26 27 28 25 29 29
13 13 12 13 18 12 29 24 21 24 29 36 35 35 36 36 35 34 33 32 30 29 29 29 30 30 31 30 30 29 29 29 27 28 29 29 28 29 29 27 25 27 28 31 28 25 23 24 24
13 11 6 9 9 7 19 18 16 12 23 28 33 34 33 33 33 32 31 31 31 30 29 29 29 29 29 29 29 29 29 28 28 28 29 29 28 27 27 26 26 27 30 29 31 33 28 27 28
14 17 10 11 9 9 12 13 10 27 16 19 31 31 31 30 29 29 29 29 29 29 28 26 26 26 26 27 27 27 27 27 28 29 28 28 28 28 28 27 28 27 28 30 28 34 31 32 32
5 13 14 6 4 5 6 6 11 17 20 18 24 28 28 28 27 27 27 27 27 27 26 25 24 24 24 25 25 25 25 26 27 28 28 28 28 28 28 28 27 28 28 28 31 30 32 33 29
10 6 6 8 4 5 2 3 2 16 18 19 22 25 25 26 25 25 25 25 25 25 25 25 25 25 26 26 27 27 27 27 26 27 28 27 27 27 27 27 27 27 27 27 28 28 30 32 30
1 3 5 4 3 4 2 3 8 13 16 16 18 20 22 24 24 26 27 26 24 25 25 25 26 26 27 28 28 29 29 29 27 27 27 28 28 27 27 26 27 27 27 27 27 27 28 28 29
4 4 3 4 3 2 2 1 4 14 14 13 13 13 15 17 20 23 25 26 27 28 28 27 25 25 25 25 25 26 27 28 27 27 27 27 27 27 27 27 27 27 28 27 27 26 27 27 27
Wind_Direction
229 227 222 213 206 226 236 232 224 239 237 231 227 213 221 226 211 209 232 225 220 214 214 212 201 197 184 197 196 190 183 190 190 191 192 201 206 186 184 175 137 117 114 93 89 85 80 78 81
221 222 220 216 229 232 241 231 231 231 223 231 233 234 232 219 225 230 216 216 208 211 214 214 211 202 193 199 197 188 189 191 196 195 201 208 208 212 196 205 182 122 135 121 97 86 84 84 80
219 215 213 218 239 236 246 243 234 230 238 235 229 228 212 215 226 222 217 211 203 199 213 211 215 210 204 200 196 193 190 193 194 200 203 208 210 213 214 224 261 299 328 122 120 101 91 91 93
215 209 219 229 236 240 232 221 244 236 235 236 232 223 231 224 225 229 220 214 208 192 208 213 212 210 206 207 203 197 196 195 197 198 202 210 213 216 219 227 243 267 278 277 242 172 142 103 106
212 212 220 238 243 238 238 230 240 237 236 240 236 232 236 232 228 229 213 218 211 211 219 219 214 207 206 211 210 204 200 197 198 203 206 212 218 222 222 229 237 242 252 257 247 225 193 167 152
213 209 223 235 244 241 241 232 235 234 233 241 236 235 237 240 226 221 220 220 232 222 228 234 220 214 205 207 209 208 205 204 203 206 208 211 218 226 226 221 219 223 231 236 237 229 230 202 181
217 218 233 244 244 237 254 240 237 242 244 249 246 234 233 230 230 217 222 229 234 229 225 219 216 216 214 213 214 210 211 209 210 214 215 216 215 224 221 223 226 226 231 228 221 222 215 216 186
216 218 236 240 241 249 258 251 244 243 241 237 231 234 235 231 230 218 217 225 223 216 220 207 207 210 212 215 218 218 216 217 220 216 219 222 226 228 231 228 225 223 223 226 222 216 210 205 197
224 224 238 235 241 242 247 255 246 240 239 225 227 229 221 225 223 217 215 219 214 221 225 237 239 231 245 227 224 223 218 224 226 224 227 229 230 229 229 234 225 222 215 217 218 214 210 202 194
219 226 239 238 231 234 245 248 238 240 244 234 228 234 230 221 218 219 214 212 213 218 220 229 242 240 246 244 239 250 237 220 226 226 226 224 232 230 229 230 232 225 215 214 213 215 206 196 194
225 232 232 236 242 248 245 245 247 235 243 240 232 234 234 230 223 218 217 220 221 221 222 227 236 232 231 228 243 253 249 225 221 220 226 228 230 228 229 230 229 229 220 217 214 211 208 202 197
230 236 232 236 243 246 253 255 255 252 244 244 236 236 240 233 229 222 219 216 224 226 229 227 228 228 233 237 242 251 263 237 234 233 230 231 238 240 229 232 233 226 224 222 219 218 212 208 207
236 237 239 240 244 245 244 244 249 256 251 245 244 241 239 234 232 229 229 222 219 223 225 222 226 229 230 233 230 244 245 247 250 230 214 223 228 226 225 224 223 224 221 234 222 221 223 218 211
242 242 247 247 247 248 247 245 241 246 246 247 247 241 237 236 228 225 226 226 221 222 227 222 226 230 229 227 233 234 227 259 226 234 233 212 217 211 205 216 218 223 222 227 219 234 230 228 224
240 247 249 246 247 249 247 247 237 242 244 244 242 241 237 237 234 226 225 223 224 222 225 227 230 230 227 231 235 233 194 210 235 230 241 246 255 257 203 200 225 230 230 219 219 226 234 236 230
245 247 245 253 248 248 243 249 241 245 244 246 246 248 248 242 236 233 229 227 224 222 224 224 229 230 224 229 224 227 246 220 251 269 232 241 244 261 234 240 254 224 233 232 230 230 220 220 232
241 244 241 243 243 233 237 245 239 240 242 242 244 243 240 239 235 232 230 231 228 222 223 224 225 226 222 226 218 232 236 238 260 265 281 286 269 286 289 276 275 248 230 231 233 234 230 230 231
236 239 240 237 252 238 233 236 238 244 244 240 239 237 235 235 232 233 232 231 230 226 225 227 225 227 228 226 237 241 245 246 256 263 266 264 277 285 299 292 274 277 242 225 232 234 238 236 235
249 245 250 248 241 246 238 234 237 238 237 238 236 235 234 233 233 232 231 232 231 228 227 227 227 228 230 231 235 240 243 246 250 259 253 255 266 262 273 278 287 290 232 225 221 226 230 237 245
249 249 247 248 248 240 244 244 243 238 238 234 228 228 232 234 234 231 230 231 231 230 229 230 229 230 234 234 238 239 243 248 250 254 256 257 260 262 253 258 263 255 281 230 234 244 236 229 232
243 240 242 238 247 243 249 250 242 235 234 233 228 225 225 224 229 231 225 224 225 225 227 230 229 230 239 238 238 238 240 245 250 252 252 254 257 258 256 256 256 254 251 267 267 255 250 253 249
246 246 248 240 231 241 232 253 237 238 234 230 226 223 223 222 221 221 222 222 221 221 226 230 231 230 236 236 240 241 244 246 250 252 254 251 253 254 253 251 248 260 253 248 252 278 273 265 255
247 248 253 247 225 232 227 227 233 236 231 230 224 221 221 223 223 224 223 224 225 225 225 227 231 234 238 241 245 246 247 249 248 250 252 252 251 252 250 247 240 245 252 246 241 249 262 282 279
238 235 240 229 221 226 225 214 231 230 234 229 227 223 221 222 224 226 228 230 231 231 233 234 237 238 240 242 244 246 247 247 246 246 247 248 248 249 249 249 245 240 243 247 247 245 250 261 258
216 206 215 211 203 231 218 210 223 237 229 227 223 223 224 222 222 225 227 229 232 235 235 235 234 236 237 240 241 243 245 245 244 244 244 246 246 246 248 246 238 245 242 245 249 244 253 255 258
218 221 237 241 218 207 178 218 224 233 241 225 216 217 220 224 225 225 227 228 230 232 233 230 227 228 229 231 235 238 240 242 242 242 241 240 241 241 243 241 240 240 238 248 246 241 246 247 249
214 227 242 301 274 239 169 227 228 223 217 213 211 213 215 216 219 222 224 225 226 226 228 229 228 228 229 231 233 235 237 237 237 238 239 239 238 238 239 241 240 241 242 242 244 248 245 242 250
235 256 245 230 249 238 148 255 201 206 205 203 203 209 212 214 213 215 217 220 221 221 224 228 230 232 232 232 233 234 235 236 236 235 237 239 239 239 239 241 242 242 241 242 244 244 245 250 249
300 241 250 284 298 299 220 138 222 200 196 199 201 206 211 214 215 215 216 218 221 224 226 231 234 234 235 235 235 234 234 235 235 234 234 236 237 237 238 240 241 243 244 243 243 244 243 241 242
44 27 27 301 50 1 311 53 219 188 187 197 200 200 204 210 216 221 225 227 228 229 233 232 230 233 233 234 235 236 235 235 236 235 234 234 236 238 239 239 240 240 242 245 245 244 244 244 242